Zurück zum Katalog

STARLINK-38190

AktivKommunikationSSO
NORAD 100219·PAYLOAD·🇺🇸 United States

Gestartet Aug 4, 2026 von Vandenberg Space Force Base

Loading…

Nächste Überflüge (nächste 24 Stunden)

TLE

AktuellSource: Space-Track

Epoche: Sep 14, 2026, 21:42 UTC

1 A0219U 26177G   26257.90433338  .00019018  00000-0  35032-3 0  9995
2 A0219  97.2829 308.6386 0001452  72.3314 287.8096 15.49202899  6495

Verfolge STARLINK-38190 in Echtzeit mit AllMySat

Download on the App Store